Location: Cabeza de los Veneras
(40.2000°N, 5.2000°W)
Time: 11:30:14
(UTC+00:00)

Cosmos 1536 Rocket - Pass Details

Date: 18 April 2024
Orbit: 603 x 628 km, 82.5° (Epoch: 21 May)

Event Time Altitude Azimuth Distance (km) Brightness Sun altitude
Rises 21:14:58 0° 345° (NNW) 2,903 7.9 -23.1°
Reaches altitude 10° 21:17:15 10° 339° (NNW) 1,997 7.0 -23.4°
Maximum altitude 21:21:28 45° 267° (W) 853 4.5 -24.0°
Enters shadow 21:22:57 33° 220° (SW) 1,060 4.7 -24.3°
